TimeIST,TemperatureF,Dew PointF,Humidity,Sea Level PressureIn,VisibilityMPH,Wind Direction,Wind SpeedMPH,Gust SpeedMPH,PrecipitationIn,Events,Conditions,WindDirDegrees,DateUTC
12:10 AM,75.2,44.6,34,29.83,2.5,Calm,Calm,-,N/A,,Smoke,0,2013-03-11 18:40:00
12:40 AM,75.2,46.4,36,29.83,2.5,Calm,Calm,-,N/A,,Smoke,0,2013-03-11 19:10:00
1:10 AM,73.4,50.0,44,29.83,2.5,Variable,2.3,-,N/A,,Smoke,0,2013-03-11 19:40:00
1:40 AM,73.4,46.4,38,29.83,2.5,Variable,2.3,-,N/A,,Smoke,0,2013-03-11 20:10:00
2:10 AM,73.4,44.6,36,29.83,2.5,Variable,2.3,-,N/A,,Smoke,0,2013-03-11 20:40:00
2:30 AM,70,51,40,29.84,2,Calm,Calm,,,,Clear,,2013-03-11 21:00:00
2:40 AM,73.4,44.6,36,29.83,2.5,Variable,2.3,-,N/A,,Smoke,0,2013-03-11 21:10:00
3:10 AM,71.6,44.6,38,29.83,2.5,Variable,2.3,-,N/A,,Smoke,0,2013-03-11 21:40:00
3:40 AM,71.6,46.4,41,29.83,2.5,Variable,2.3,-,N/A,,Smoke,0,2013-03-11 22:10:00
4:40 AM,71.6,41.0,33,29.83,2.5,Variable,2.3,-,N/A,,Smoke,0,2013-03-11 23:10:00
5:10 AM,69.8,41.0,35,29.83,2.5,Variable,2.3,-,N/A,,Smoke,0,2013-03-11 23:40:00
5:30 AM,71,49,35,29.84,2,NW,2.3,,,,Clear,320,2013-03-12 00:00:00
5:40 AM,68.0,41.0,37,29.83,2.5,Variable,2.3,-,N/A,,Smoke,0,2013-03-12 00:10:00
6:10 AM,68.0,42.8,40,29.83,2.5,Variable,2.3,-,N/A,,Smoke,0,2013-03-12 00:40:00
6:40 AM,68.0,42.8,40,29.83,2.2,Variable,2.3,-,N/A,,Smoke,0,2013-03-12 01:10:00
7:40 AM,64.4,46.4,52,29.86,1.6,Variable,2.3,-,N/A,,Smoke,0,2013-03-12 02:10:00
8:10 AM,69.8,44.6,40,29.86,1.2,Variable,2.3,-,N/A,,Smoke,0,2013-03-12 02:40:00
8:30 AM,71,50,37,29.90,2,Calm,Calm,,,,Clear,,2013-03-12 03:00:00
8:40 AM,73.4,46.4,38,29.89,1.2,NNW,2.3,-,N/A,,Smoke,340,2013-03-12 03:10:00
9:10 AM,77.0,48.2,36,29.89,1.2,North,2.3,-,N/A,,Smoke,360,2013-03-12 03:40:00
9:40 AM,80.6,48.2,32,29.89,1.2,NNW,5.8,-,N/A,,Smoke,340,2013-03-12 04:10:00
10:10 AM,84.2,48.2,29,29.89,1.6,NNW,3.5,-,N/A,,Smoke,340,2013-03-12 04:40:00
10:40 AM,87.8,50.0,27,29.89,1.6,Variable,3.5,-,N/A,,Smoke,0,2013-03-12 05:10:00
11:10 AM,89.6,48.2,24,29.89,1.6,Variable,3.5,-,N/A,,Smoke,0,2013-03-12 05:40:00
11:30 AM,89,48,15,29.91,2,NW,2.3,,,,,320,2013-03-12 06:00:00
12:10 PM,93.2,44.6,19,29.86,2.5,WNW,6.9,-,N/A,,Smoke,290,2013-03-12 06:40:00
1:10 PM,95.0,44.6,18,29.83,3.1,WNW,6.9,-,N/A,,Smoke,290,2013-03-12 07:40:00
1:40 PM,96.8,42.8,16,29.80,3.7,SW,6.9,-,N/A,,Unknown,230,2013-03-12 08:10:00
2:10 PM,98.6,42.8,15,29.80,3.7,West,9.2,-,N/A,,Unknown,260,2013-03-12 08:40:00
2:30 PM,96,43,9,29.83,2,SW,4.6,,,,,230,2013-03-12 09:00:00
2:40 PM,96.8,41.0,15,29.77,3.7,West,5.8,-,N/A,,Unknown,280,2013-03-12 09:10:00
3:10 PM,98.6,42.8,15,29.77,3.7,NNW,5.8,-,N/A,,Unknown,340,2013-03-12 09:40:00
3:40 PM,98.6,41.0,14,29.74,3.7,West,8.1,-,N/A,,Unknown,260,2013-03-12 10:10:00
4:10 PM,98.6,39.2,13,29.74,3.7,WSW,8.1,-,N/A,,Unknown,250,2013-03-12 10:40:00
4:40 PM,98.6,37.4,12,29.74,3.7,West,6.9,-,N/A,,Unknown,280,2013-03-12 11:10:00
5:10 PM,98.6,39.2,13,29.74,3.7,WNW,6.9,-,N/A,,Unknown,290,2013-03-12 11:40:00
5:30 PM,95,42,9,29.78,2,NW,5.8,,,,Clear,320,2013-03-12 12:00:00
5:40 PM,96.8,39.2,14,29.74,3.7,WNW,6.9,-,N/A,,Unknown,290,2013-03-12 12:10:00
6:10 PM,95.0,41.0,15,29.74,3.7,NW,6.9,-,N/A,,Unknown,320,2013-03-12 12:40:00
7:40 PM,86.0,41.0,20,29.77,2.5,Calm,Calm,-,N/A,,Smoke,0,2013-03-12 14:10:00
8:10 PM,84.2,39.2,20,29.80,2.5,Calm,Calm,-,N/A,,Smoke,0,2013-03-12 14:40:00
8:30 PM,77,53,32,29.83,2,Calm,Calm,,,,Smoke,,2013-03-12 15:00:00
8:40 PM,80.6,44.6,28,29.80,2.5,Calm,Calm,-,N/A,,Smoke,0,2013-03-12 15:10:00
9:10 PM,78.8,48.2,34,29.80,2.5,Calm,Calm,-,N/A,,Smoke,0,2013-03-12 15:40:00
9:40 PM,77.0,48.2,36,29.83,2.5,NE,3.5,-,N/A,,Smoke,50,2013-03-12 16:10:00
10:10 PM,77.0,44.6,32,29.83,2.5,NNE,3.5,-,N/A,,Smoke,20,2013-03-12 16:40:00
10:40 PM,75.2,46.4,36,29.83,2.5,Variable,2.3,-,N/A,,Smoke,0,2013-03-12 17:10:00
11:10 PM,80.6,44.6,28,29.83,2.5,Variable,2.3,-,N/A,,Smoke,0,2013-03-12 17:40:00
11:30 PM,72,52,38,29.87,2,Calm,Calm,,,,,,2013-03-12 18:00:00
11:40 PM,80.6,44.6,28,29.83,2.5,SW,3.5,-,N/A,,Smoke,220,2013-03-12 18:10:00